sat.trackr.live / text

‹ back to catalog

STARLINK-11723 [DTC]

NORAD 64075 · 2025-107M

PAYLOAD ACTIVE UNKNOWN

§ Identity

Operator
Country
US
Launch date
2025-05-21
Launch site
AFETR
Launch vehicle
Mass (kg)
RCS (m²)

Purposes: comms

External: N2YO · Heavens-Above · Gunter

§ Orbital elements

Epoch: 2026-05-24T17:07:33.005280Z

Period
91.67 min
Inclination
42.9994°
Eccentricity
0.0002750
Mean motion
15.70839435 rev/d
Perigee alt
354.6 km
Apogee alt
358.3 km
Semi-major
6,734.6 km
B*
1.1782e-3
RAAN
0.0680°
Arg perigee
229.5471°
Mean anomaly
130.5157°
Rev number
5,925

§ Raw data

STARLINK-11723 [DTC]1 64075U 25107M   26144.71357645  .00153570  00000+0  11782-2 0  99932 64075  42.9994   0.0680 0002750 229.5471 130.5157 15.70839435 59257

JSON: /api/v1/satellites/64075 · /tle

For live sub-satellite position, see the globe view (requires WebGL).

§ Visibility from observer

Set your observer location to see the next 7 days of passes ≥ 10°. The values pass through the URL so the page stays shareable.

No JS? Fill the form by hand. The geolocation button needs JavaScript.